STARLINK-32643, 62233

Orbit data source: Space-Track

STARLINK-32643, 62233 is a payload satellite owned by SpaceX/Seattle (US) in LEO that was launched on Thu, 05 Dec 2024 UTC via an FALCON 9 launch vehicle from the Air Force Western Test Range (AFWTR). Payload-class satellites include a variety of spacecraft equipped with specific instruments for various scientific and technological missions. These include communications satellites like Starlink; space stations such as the ISS; scientific satellites like the Hubble; Earth observation satellites from companies like Planet Labs, Umbra, and HawkEye 360; GPS; miniature CubeSats for education and research; and military/defense satellites.

Loading next visibility...
Identifier
62233, 2024-231R
Orbit
LEO
Country
Flag of USUS
Related business
Manufacturer
SpaceX/Seattle
Mission
Operational Commercial Communications
Bus & Motor
STARLINK V2M, Unknown motor
Mass
730 kg wet, ~700 kg dry
Launch date (UTC)
2024-12-05 (9 months ago)
Launch vehicle
FALCON 9
Launch site
Air Force Western Test Range (AFWTR)
Object type
Payload
Rocket body
Debris
Shape & HBR
Box + 2 Pan, 14.5 m
Radar Cross Section
33.884 m², Large (>1 m²)

Expand to show TLE details & history
Last TLE update: 2 days ago

TLE from 2 days ago
0 STARLINK-32643
1 62233U 24231R   25259.40073886  .00006130  00000-0  16306-3 0  9996
2 62233  53.1574 298.5556 0000816  43.8174 316.2895 15.39627382 45228
Epoch: 2025-09-16T09:37Z
TLE epoch observation values (Epoch: 2025-09-16T09:37:03.837Z)
Latitude
-0.00006°
Longitude
158.69799°
Altitude
447.711 km
Speed
7.645 km/s
True Right ascension
19h 54m 13s
True Declination
0° 00' 00"
Sunlit
Object was in full shadow at epoch
Visualization orbit readout
Latitude
Unknown
Longitude
Unknown
Altitude
Unknown
Speed
Unknown
Apparent Right ascension
Unknown
Apparent Declination
Unknown
Sunlit
N/A
Visualization observer readout
Local Sidereal Time
19:56:56
Azimuth
Unknown
Elevation
Unknown
Doppler factor
Unknown
Orbital elements
Apogee altitude
448.025 km
Perigee altitude
446.911 km
Semi-major axis
6,825.605 km
Eccentricity
0.00008
Inclination
53.1574°
RAAN
298.5556°
Arg. of periapsis
43.8174°
True anomaly
316.28304°
Mean anomaly
316.2895°
Eccentric anomaly
316.28627°
Mean motion
3.84885 °/min
Orbital period
93.53 mins
BSTAR
0.00016306
Loading maneuver chart data...
Computing Atmospheric mass density...
Loading historical data...
Loading historical data...
Loading historical data...
Loading historical data...
Loading historical data...
Loading historical data...
Loading historical data...

Documentation

Showing up to 5 results
|